| time (UTC) | temp C | wind direction | speed KPH | gust KPH | rain 1hr cm | rain 24hr cm | rain mn cm | humidity % | barometer mb |
| 20260902065329 | 16 | 230 | 0.0 | 0.0 | 0.00 | 0.03 | 0.03 | 34 | 1023.1 |
| 20260902064826 | 16 | 245 | 0.0 | 0.0 | 0.00 | 0.03 | 0.03 | 34 | 1023.5 |
| 20260902064319 | 16 | 195 | 0.0 | 0.0 | 0.00 | 0.03 | 0.03 | 33 | 1023.1 |
| 20260902063814 | 17 | 195 | 0.0 | 0.0 | 0.00 | 0.03 | 0.03 | 33 | 1023.5 |
| 20260902063309 | 17 | 196 | 0.0 | 0.0 | 0.00 | 0.03 | 0.03 | 33 | 1023.5 |
| 20260902062804 | 17 | 206 | 0.0 | 0.0 | 0.00 | 0.03 | 0.03 | 32 | 1023.1 |
| 20260902062259 | 17 | 226 | 0.0 | 0.0 | 0.00 | 0.03 | 0.03 | 32 | 1023.5 |
| 20260902061753 | 17 | 217 | 0.0 | 0.0 | 0.00 | 0.03 | 0.03 | 31 | 1023.5 |
| 20260902061249 | 17 | 251 | 0.0 | 0.0 | 0.00 | 0.03 | 0.03 | 31 | 1023.1 |
| 20260902061243 | 17 | 203 | 0.0 | 0.0 | 0.00 | 0.03 | 0.03 | 31 | 1023.1 |
| 20260902060238 | 17 | 207 | 0.0 | 0.0 | 0.00 | 0.03 | 0.03 | 31 | 1023.1 |
| 20260902055732 | 17 | 247 | 0.0 | 0.0 | 0.00 | 0.03 | 0.03 | 31 | 1023.5 |
| 20260902055227 | 17 | 274 | 0.0 | 0.0 | 0.00 | 0.03 | 0.03 | 31 | 1023.5 |
| 20260902055222 | 17 | 240 | 0.0 | 0.0 | 0.00 | 0.03 | 0.03 | 33 | 1023.5 |
| 20260902054216 | 17 | 218 | 0.0 | 0.0 | 0.00 | 0.03 | 0.03 | 32 | 1023.5 |
| 20260902053710 | 17 | 218 | 0.0 | 0.0 | 0.00 | 0.03 | 0.03 | 31 | 1023.5 |
| 20260902053205 | 17 | 238 | 0.0 | 0.0 | 0.00 | 0.03 | 0.03 | 31 | 1023.5 |
| 20260902052659 | 17 | 221 | 0.0 | 0.0 | 0.00 | 0.03 | 0.03 | 31 | 1023.5 |
| 20260902052155 | 17 | 210 | 0.0 | 0.0 | 0.00 | 0.03 | 0.03 | 31 | 1023.5 |
| 20260902051649 | 17 | 252 | 0.0 | 0.0 | 0.00 | 0.03 | 0.03 | 31 | 1023.5 |
| 20260902051143 | 17 | 227 | 0.0 | 0.0 | 0.00 | 0.03 | 0.03 | 31 | 1023.5 |
| 20260902050638 | 17 | 238 | 0.0 | 0.0 | 0.00 | 0.03 | 0.03 | 31 | 1023.8 |
| 20260902050633 | 17 | 219 | 0.0 | 0.0 | 0.00 | 0.03 | 0.03 | 30 | 1023.5 |
| 20260902045628 | 17 | 206 | 0.0 | 0.0 | 0.00 | 0.03 | 0.03 | 30 | 1023.8 |
| 20260902045122 | 17 | 217 | 0.0 | 0.0 | 0.00 | 0.03 | 0.03 | 30 | 1023.5 |
| 20260902044617 | 17 | 189 | 0.0 | 0.0 | 0.00 | 0.03 | 0.03 | 29 | 1023.8 |
| 20260902044112 | 17 | 217 | 0.0 | 0.0 | 0.00 | 0.03 | 0.03 | 29 | 1023.5 |
| 20260902043607 | 17 | 197 | 0.0 | 0.0 | 0.00 | 0.03 | 0.03 | 29 | 1023.5 |
| 20260902043101 | 17 | 201 | 0.0 | 0.0 | 0.00 | 0.03 | 0.03 | 28 | 1023.5 |
| 20260902042556 | 18 | 208 | 0.0 | 1.6 | 0.00 | 0.03 | 0.03 | 30 | 1023.5 |
| 20260902042052 | 18 | 281 | 0.0 | 1.6 | 0.00 | 0.03 | 0.03 | 30 | 1023.5 |
| 20260902042047 | 18 | 242 | 0.0 | 0.0 | 0.00 | 0.03 | 0.03 | 30 | 1023.5 |
| 20260902041040 | 18 | 252 | 0.0 | 0.0 | 0.00 | 0.03 | 0.03 | 30 | 1023.5 |
| 20260902040535 | 18 | 242 | 0.0 | 0.0 | 0.00 | 0.03 | 0.03 | 29 | 1023.5 |
| 20260902040528 | 19 | 249 | 0.0 | 0.0 | 0.00 | 0.03 | 0.03 | 30 | 1023.1 |
| 20260902040133 | 18 | 246 | 0.0 | 0.0 | 0.00 | 0.03 | 0.03 | 31 | 1023.5 |
| 20260902035021 | 19 | 184 | 0.0 | 0.0 | 0.00 | 0.03 | 0.03 | 29 | 1023.1 |
| 20260902035015 | 19 | 258 | 0.0 | 0.0 | 0.00 | 0.03 | 0.03 | 28 | 1023.1 |
| 20260902034011 | 19 | 188 | 0.0 | 0.0 | 0.00 | 0.03 | 0.03 | 28 | 1023.1 |
| 20260902034006 | 19 | 277 | 0.0 | 0.0 | 0.00 | 0.03 | 0.03 | 28 | 1023.1 |
| 20260902032959 | 19 | 277 | 0.0 | 0.0 | 0.00 | 0.03 | 0.03 | 27 | 1023.1 |
| 20260902032454 | 19 | 183 | 0.0 | 0.0 | 0.00 | 0.03 | 0.03 | 27 | 1022.8 |
| 20260902031948 | 19 | 240 | 0.0 | 0.0 | 0.00 | 0.03 | 0.03 | 27 | 1023.1 |
| 20260902031442 | 19 | 210 | 0.0 | 0.0 | 0.00 | 0.03 | 0.03 | 27 | 1022.4 |
| 20260902030937 | 19 | 95 | 0.0 | 1.6 | 0.00 | 0.03 | 0.03 | 27 | 1022.8 |
| 20260902030432 | 20 | 244 | 0.0 | 1.6 | 0.00 | 0.03 | 0.03 | 27 | 1022.4 |
| 20260902025926 | 20 | 223 | 0.0 | 0.0 | 0.00 | 0.03 | 0.03 | 27 | 1022.8 |
| 20260902025425 | 20 | 202 | 0.0 | 0.0 | 0.00 | 0.03 | 0.03 | 27 | 1022.4 |
| 20260902025421 | 20 | 237 | 0.0 | 0.0 | 0.00 | 0.03 | 0.03 | 27 | 1022.4 |
| 20260902024410 | 20 | 203 | 0.0 | 0.0 | 0.00 | 0.03 | 0.03 | 27 | 1022.4 |
| 20260902023905 | 20 | 232 | 0.0 | 0.0 | 0.00 | 0.03 | 0.03 | 26 | 1022.4 |
| 20260902023400 | 20 | 267 | 0.0 | 0.0 | 0.00 | 0.03 | 0.03 | 25 | 1022.1 |
| 20260902022854 | 20 | 248 | 0.0 | 0.0 | 0.00 | 0.03 | 0.03 | 25 | 1022.1 |
| 20260902022349 | 20 | 279 | 0.0 | 0.0 | 0.00 | 0.03 | 0.03 | 25 | 1022.4 |
| 20260902021844 | 20 | 258 | 0.0 | 0.0 | 0.00 | 0.03 | 0.03 | 24 | 1022.4 |
| 20260902021338 | 20 | 227 | 0.0 | 0.0 | 0.00 | 0.03 | 0.03 | 24 | 1022.1 |
| 20260902021329 | 21 | 298 | 0.0 | 3.2 | 0.00 | 0.03 | 0.03 | 23 | 1022.1 |
| 20260902020933 | 20 | 300 | 0.0 | 0.0 | 0.00 | 0.03 | 0.03 | 23 | 1022.1 |
| 20260902015823 | 21 | 307 | 1.6 | 3.2 | 0.00 | 0.03 | 0.03 | 22 | 1022.1 |
| 20260902015318 | 21 | 249 | 0.0 | 0.0 | 0.00 | 0.03 | 0.03 | 23 | 1022.1 |
| 20260902014812 | 21 | 207 | 0.0 | 0.0 | 0.00 | 0.03 | 0.03 | 21 | 1022.1 |
| 20260902014307 | 21 | 225 | 0.0 | 1.6 | 0.00 | 0.03 | 0.03 | 21 | 1021.8 |
| 20260902013802 | 21 | 186 | 0.0 | 1.6 | 0.00 | 0.03 | 0.03 | 21 | 1021.8 |
| 20260902013257 | 21 | 202 | 0.0 | 1.6 | 0.00 | 0.03 | 0.03 | 20 | 1022.1 |
| 20260902012247 | 21 | 307 | 0.0 | 4.8 | 0.00 | 0.03 | 0.03 | 21 | 1022.1 |
| 20260902012242 | 21 | 251 | 0.0 | 0.0 | 0.00 | 0.03 | 0.03 | 20 | 1021.8 |
| 20260902011236 | 22 | 114 | 0.0 | 1.6 | 0.00 | 0.03 | 0.03 | 20 | 1022.1 |
| 20260902010730 | 22 | 49 | 0.0 | 3.2 | 0.00 | 0.03 | 0.03 | 20 | 1021.8 |
| 20260902010225 | 22 | 288 | 0.0 | 4.8 | 0.00 | 0.03 | 0.03 | 19 | 1021.8 |
| 20260902005719 | 22 | 303 | 0.0 | 4.8 | 0.00 | 0.03 | 0.03 | 18 | 1021.8 |
| 20260902005214 | 22 | 230 | 0.0 | 1.6 | 0.00 | 0.03 | 0.03 | 18 | 1021.8 |
| 20260902004709 | 22 | 339 | 0.0 | 1.6 | 0.00 | 0.03 | 0.03 | 18 | 1021.8 |
| 20260902004204 | 22 | 285 | 0.0 | 3.2 | 0.00 | 0.03 | 0.03 | 18 | 1021.8 |
| 20260902003700 | 22 | 306 | 0.0 | 3.2 | 0.00 | 0.03 | 0.03 | 18 | 1021.8 |
| 20260902003655 | 22 | 228 | 0.0 | 3.2 | 0.00 | 0.03 | 0.03 | 18 | 1021.4 |
| 20260902002648 | 22 | 101 | 0.0 | 6.4 | 0.00 | 0.03 | 0.03 | 18 | 1021.8 |
| 20260902002143 | 22 | 237 | 0.0 | 6.4 | 0.00 | 0.03 | 0.03 | 18 | 1021.8 |
| 20260902001637 | 22 | 265 | 0.0 | 1.6 | 0.00 | 0.03 | 0.03 | 18 | 1021.8 |
| 20260902001132 | 23 | 241 | 0.0 | 4.8 | 0.00 | 0.03 | 0.03 | 18 | 1021.4 |
| 20260902000627 | 23 | 300 | 0.0 | 4.8 | 0.00 | 0.03 | 0.03 | 18 | 1021.4 |
| 20260902000121 | 23 | 215 | 0.0 | 6.4 | 0.00 | 0.03 | 0.03 | 18 | 1021.4 |
| 20260901235616 | 23 | 319 | 0.0 | 6.4 | 0.00 | 0.03 | 0.03 | 14 | 1021.4 |
| 20260901235610 | 23 | 200 | 0.0 | 4.8 | 0.00 | 0.03 | 0.03 | 14 | 1021.4 |
| 20260901234604 | 23 | 58 | 0.0 | 4.8 | 0.00 | 0.03 | 0.03 | 13 | 1021.4 |
| 20260901234059 | 23 | 183 | 0.0 | 1.6 | 0.00 | 0.03 | 0.03 | 13 | 1021.4 |
| 20260901233554 | 23 | 199 | 0.0 | 1.6 | 0.00 | 0.03 | 0.03 | 12 | 1021.4 |
| 20260901233049 | 23 | 278 | 0.0 | 4.8 | 0.00 | 0.03 | 0.03 | 12 | 1021.4 |
| 20260901232544 | 24 | 314 | 0.0 | 4.8 | 0.00 | 0.03 | 0.03 | 14 | 1021.4 |
| 20260901232038 | 24 | 304 | 0.0 | 3.2 | 0.00 | 0.03 | 0.03 | 13 | 1021.8 |
| 20260901232033 | 24 | 196 | 0.0 | 3.2 | 0.00 | 0.03 | 0.03 | 12 | 1021.4 |
| 20260901231029 | 25 | 273 | 0.0 | 4.8 | 0.00 | 0.03 | 0.03 | 12 | 1021.4 |
| 20260901231024 | 25 | 197 | 0.0 | 4.8 | 0.00 | 0.03 | 0.03 | 11 | 1021.8 |
| 20260901230018 | 25 | 217 | 0.0 | 4.8 | 0.00 | 0.03 | 0.03 | 11 | 1021.8 |
| 20260901225512 | 25 | 214 | 0.0 | 1.6 | 0.00 | 0.03 | 0.03 | 10 | 1021.8 |
| 20260901225507 | 26 | 244 | 0.0 | 1.6 | 0.00 | 0.03 | 0.03 | 10 | 1021.4 |
| 20260901224502 | 26 | 162 | 0.0 | 3.2 | 0.00 | 0.03 | 0.03 | 10 | 1021.4 |
| 20260901223956 | 26 | 271 | 0.0 | 4.8 | 0.00 | 0.03 | 0.03 | 11 | 1021.4 |
| 20260901223451 | 26 | 288 | 0.0 | 4.8 | 0.00 | 0.03 | 0.03 | 11 | 1021.4 |
| 20260901222945 | 26 | 250 | 0.0 | 3.2 | 0.00 | 0.03 | 0.03 | 11 | 1021.8 |
| 20260901222442 | 26 | 0 | 0.0 | 3.2 | 0.00 | 0.03 | 0.03 | 10 | 1021.8 |
| 20260901222436 | 26 | 336 | 0.0 | 0.0 | 0.00 | 0.03 | 0.03 | 10 | 1021.8 |
| 20260901221431 | 26 | 144 | 0.0 | 1.6 | 0.00 | 0.03 | 0.03 | 10 | 1021.8 |
| 20260901221426 | 26 | 242 | 0.0 | 1.6 | 0.00 | 0.03 | 0.03 | 10 | 1021.8 |
| 20260901220421 | 26 | 204 | 0.0 | 0.0 | 0.00 | 0.03 | 0.03 | 10 | 1021.8 |
| 20260901220415 | 26 | 220 | 0.0 | 0.0 | 0.00 | 0.03 | 0.03 | 10 | 1022.1 |
| 20260901215408 | 26 | 270 | 0.0 | 0.0 | 0.00 | 0.03 | 0.03 | 10 | 1021.8 |
| 20260901214904 | 27 | 281 | 0.0 | 0.0 | 0.00 | 0.03 | 0.03 | 10 | 1021.8 |
| 20260901214854 | 27 | 206 | 0.0 | 1.6 | 0.00 | 0.03 | 0.03 | 10 | 1022.1 |
| 20260901214459 | 26 | 194 | 0.0 | 1.6 | 0.00 | 0.03 | 0.03 | 10 | 1022.1 |
| 20260901213348 | 27 | 246 | 0.0 | 9.7 | 0.00 | 0.03 | 0.03 | 10 | 1022.1 |
| 20260901212842 | 27 | 250 | 0.0 | 9.7 | 0.00 | 0.03 | 0.03 | 10 | 1022.1 |
| 20260901212337 | 26 | 225 | 0.0 | 0.0 | 0.00 | 0.03 | 0.03 | 12 | 1022.1 |
| 20260901211832 | 26 | 266 | 0.0 | 0.0 | 0.00 | 0.03 | 0.03 | 10 | 1022.1 |
| 20260901211326 | 26 | 189 | 0.0 | 0.0 | 0.00 | 0.03 | 0.03 | 10 | 1022.1 |
| 20260901210820 | 25 | 215 | 0.0 | 0.0 | 0.00 | 0.03 | 0.03 | 10 | 1022.1 |
| 20260901210316 | 25 | 249 | 0.0 | 0.0 | 0.00 | 0.03 | 0.03 | 10 | 1022.1 |
| 20260901205810 | 25 | 298 | 0.0 | 0.0 | 0.00 | 0.03 | 0.03 | 10 | 1022.1 |
| 20260901205306 | 24 | 175 | 0.0 | 0.0 | 0.00 | 0.03 | 0.03 | 10 | 1021.8 |
| 20260901205300 | 24 | 233 | 0.0 | 0.0 | 0.00 | 0.03 | 0.03 | 10 | 1021.8 |
| 20260901204253 | 24 | 233 | 0.0 | 0.0 | 0.00 | 0.03 | 0.03 | 10 | 1022.4 |
| 20260901203749 | 24 | 181 | 0.0 | 0.0 | 0.00 | 0.03 | 0.03 | 11 | 1022.4 |
| 20260901203743 | 24 | 202 | 0.0 | 0.0 | 0.00 | 0.03 | 0.03 | 10 | 1022.4 |
| 20260901202739 | 24 | 185 | 0.0 | 0.0 | 0.00 | 0.03 | 0.03 | 11 | 1022.1 |
| 20260901202235 | 24 | 199 | 0.0 | 1.6 | 0.00 | 0.03 | 0.03 | 11 | 1022.4 |
| 20260901202230 | 25 | 202 | 0.0 | 1.6 | 0.00 | 0.03 | 0.03 | 12 | 1022.8 |
| 20260901201222 | 25 | 210 | 0.0 | 0.0 | 0.00 | 0.03 | 0.03 | 11 | 1022.4 |
| 20260901200719 | 25 | 219 | 0.0 | 1.6 | 0.00 | 0.03 | 0.03 | 11 | 1022.8 |
| 20260901200214 | 25 | 262 | 0.0 | 0.0 | 0.00 | 0.03 | 0.03 | 10 | 1022.4 |
| 20260901200209 | 25 | 219 | 0.0 | 1.6 | 0.00 | 0.03 | 0.03 | 11 | 1022.8 |
| 20260901195201 | 25 | 178 | 0.0 | 1.6 | 0.00 | 0.03 | 0.03 | 12 | 1022.8 |
| 20260901194658 | 25 | 29 | 0.0 | 0.0 | 0.00 | 0.03 | 0.03 | 10 | 1022.8 |
| 20260901194151 | 25 | 211 | 0.0 | 0.0 | 0.00 | 0.03 | 0.03 | 14 | 1022.4 |
| 20260901193646 | 25 | 231 | 0.0 | 0.0 | 0.00 | 0.03 | 0.03 | 11 | 1022.8 |
| 20260901193140 | 25 | 219 | 0.0 | 0.0 | 0.00 | 0.03 | 0.03 | 11 | 1022.8 |
| 20260901192636 | 25 | 221 | 0.0 | 0.0 | 0.00 | 0.03 | 0.03 | 12 | 1022.8 |
| 20260901191624 | 25 | 293 | 0.0 | 1.6 | 0.00 | 0.03 | 0.03 | 11 | 1023.1 |
| 20260901191119 | 25 | 22 | 0.0 | 0.0 | 0.00 | 0.03 | 0.03 | 10 | 1023.1 |
| 20260901190613 | 25 | 173 | 0.0 | 0.0 | 0.00 | 0.03 | 0.03 | 12 | 1023.1 |
| 20260901190108 | 25 | 107 | 0.0 | 0.0 | 0.00 | 0.03 | 0.03 | 10 | 1023.1 |
| 20260901185604 | 24 | 189 | 0.0 | 0.0 | 0.00 | 0.03 | 0.03 | 10 | 1023.1 |
| 20260901185559 | 24 | 231 | 0.0 | 0.0 | 0.00 | 0.03 | 0.03 | 10 | 1023.1 |
| 20260901184552 | 23 | 240 | 0.0 | 0.0 | 0.00 | 0.03 | 0.03 | 12 | 1023.1 |
| 20260901184047 | 23 | 258 | 0.0 | 0.0 | 0.00 | 0.03 | 0.03 | 12 | 1023.1 |
| 20260901183542 | 23 | 242 | 0.0 | 0.0 | 0.00 | 0.03 | 0.03 | 11 | 1023.1 |
| 20260901183037 | 23 | 238 | 0.0 | 0.0 | 0.00 | 0.03 | 0.03 | 11 | 1023.1 |
| 20260901182531 | 22 | 275 | 0.0 | 0.0 | 0.00 | 0.03 | 0.03 | 11 | 1022.8 |
| 20260901182026 | 22 | 255 | 0.0 | 0.0 | 0.00 | 0.03 | 0.03 | 13 | 1023.5 |
| 20260901181521 | 22 | 166 | 0.0 | 0.0 | 0.00 | 0.03 | 0.03 | 14 | 1023.5 |
| 20260901181516 | 22 | 192 | 0.0 | 0.0 | 0.00 | 0.03 | 0.03 | 17 | 1022.8 |
| 20260901180510 | 22 | 256 | 0.0 | 1.6 | 0.00 | 0.03 | 0.03 | 17 | 1023.1 |
| 20260901180005 | 21 | 38 | 0.0 | 1.6 | 0.00 | 0.03 | 0.03 | 18 | 1023.5 |
| 20260901175459 | 21 | 232 | 0.0 | 0.0 | 0.00 | 0.03 | 0.03 | 19 | 1023.1 |
| 20260901174954 | 21 | 328 | 0.0 | 0.0 | 0.00 | 0.03 | 0.03 | 19 | 1023.1 |
| 20260901174449 | 21 | 209 | 0.0 | 0.0 | 0.00 | 0.03 | 0.03 | 19 | 1022.8 |
| 20260901174444 | 21 | 195 | 0.0 | 0.0 | 0.00 | 0.03 | 0.03 | 18 | 1023.1 |
| 20260901173437 | 21 | 202 | 0.0 | 0.0 | 0.00 | 0.03 | 0.03 | 18 | 1022.8 |
| 20260901172931 | 21 | 261 | 0.0 | 0.0 | 0.00 | 0.03 | 0.03 | 19 | 1022.8 |
| 20260901172427 | 20 | 228 | 0.0 | 0.0 | 0.00 | 0.03 | 0.03 | 20 | 1022.8 |
| 20260901171921 | 20 | 294 | 0.0 | 0.0 | 0.00 | 0.03 | 0.03 | 19 | 1022.8 |
| 20260901171416 | 20 | 218 | 0.0 | 0.0 | 0.00 | 0.03 | 0.03 | 20 | 1022.8 |
| 20260901170910 | 20 | 187 | 0.0 | 1.6 | 0.00 | 0.03 | 0.03 | 21 | 1022.8 |
| 20260901170405 | 20 | 230 | 0.0 | 1.6 | 0.00 | 0.03 | 0.03 | 22 | 1022.4 |
| 20260901165900 | 20 | 303 | 0.0 | 0.0 | 0.00 | 0.03 | 0.03 | 22 | 1022.8 |
| 20260901165355 | 20 | 234 | 0.0 | 0.0 | 0.00 | 0.03 | 0.03 | 22 | 1022.8 |
| 20260901164851 | 20 | 185 | 0.0 | 0.0 | 0.00 | 0.03 | 0.03 | 23 | 1022.8 |
| 20260901164845 | 20 | 242 | 0.0 | 1.6 | 0.00 | 0.03 | 0.03 | 23 | 1022.8 |
| 20260901163838 | 20 | 230 | 0.0 | 1.6 | 0.00 | 0.03 | 0.03 | 24 | 1022.8 |
| 20260901163333 | 20 | 245 | 0.0 | 0.0 | 0.00 | 0.03 | 0.03 | 24 | 1022.8 |
| 20260901163325 | 20 | 192 | 0.0 | 0.0 | 0.00 | 0.03 | 0.03 | 24 | 1023.1 |
| 20260901162930 | 20 | 280 | 0.0 | 0.0 | 0.00 | 0.03 | 0.03 | 24 | 1022.8 |
| 20260901161818 | 20 | 255 | 0.0 | 1.6 | 0.00 | 0.03 | 0.03 | 22 | 1022.8 |
| 20260901161809 | 20 | 168 | 0.0 | 0.0 | 0.00 | 0.03 | 0.03 | 20 | 1022.8 |
| 20260901161413 | 20 | 156 | 0.0 | 1.6 | 0.00 | 0.03 | 0.03 | 21 | 1022.8 |
| 20260901160303 | 20 | 277 | 0.0 | 0.0 | 0.00 | 0.03 | 0.03 | 20 | 1022.8 |
| 20260901155757 | 20 | 206 | 0.0 | 0.0 | 0.00 | 0.03 | 0.03 | 21 | 1022.4 |
| 20260901155252 | 20 | 280 | 0.0 | 0.0 | 0.00 | 0.03 | 0.03 | 21 | 1022.4 |
| 20260901154747 | 19 | 36 | 0.0 | 0.0 | 0.00 | 0.03 | 0.03 | 23 | 1022.4 |
| 20260901154241 | 19 | 198 | 0.0 | 0.0 | 0.00 | 0.03 | 0.03 | 22 | 1022.1 |
| 20260901153736 | 18 | 221 | 0.0 | 0.0 | 0.00 | 0.03 | 0.03 | 24 | 1022.4 |
| 20260901153230 | 18 | 172 | 0.0 | 0.0 | 0.00 | 0.03 | 0.03 | 23 | 1022.1 |
| 20260901152725 | 18 | 155 | 0.0 | 0.0 | 0.00 | 0.03 | 0.03 | 25 | 1022.4 |
| 20260901152220 | 18 | 191 | 0.0 | 1.6 | 0.00 | 0.03 | 0.03 | 26 | 1022.4 |
| 20260901151715 | 17 | 319 | 0.0 | 1.6 | 0.00 | 0.03 | 0.03 | 29 | 1022.1 |
| 20260901151210 | 17 | 244 | 0.0 | 0.0 | 0.00 | 0.03 | 0.03 | 32 | 1021.8 |
| 20260901150704 | 17 | 192 | 0.0 | 0.0 | 0.00 | 0.03 | 0.03 | 30 | 1021.8 |
| 20260901150159 | 16 | 194 | 0.0 | 0.0 | 0.00 | 0.03 | 0.03 | 28 | 1021.8 |
| 20260901145653 | 16 | 207 | 0.0 | 0.0 | 0.00 | 0.03 | 0.03 | 30 | 1022.1 |
| 20260901145147 | 15 | 219 | 0.0 | 0.0 | 0.00 | 0.03 | 0.03 | 30 | 1021.8 |
| 20260901144643 | 15 | 211 | 0.0 | 0.0 | 0.00 | 0.03 | 0.03 | 33 | 1021.8 |
| 20260901144138 | 14 | 238 | 0.0 | 0.0 | 0.00 | 0.03 | 0.03 | 37 | 1021.8 |
| 20260901143633 | 14 | 231 | 0.0 | 0.0 | 0.00 | 0.03 | 0.03 | 37 | 1021.8 |
| 20260901143126 | 13 | 217 | 0.0 | 0.0 | 0.00 | 0.03 | 0.03 | 39 | 1021.8 |
| 20260901142621 | 13 | 221 | 0.0 | 0.0 | 0.00 | 0.03 | 0.03 | 39 | 1021.8 |
| 20260901142115 | 13 | 215 | 0.0 | 0.0 | 0.00 | 0.03 | 0.03 | 39 | 1021.8 |
| 20260901141611 | 13 | 229 | 0.0 | 0.0 | 0.00 | 0.03 | 0.03 | 39 | 1021.4 |
| 20260901141105 | 13 | 220 | 0.0 | 0.0 | 0.00 | 0.03 | 0.03 | 39 | 1021.8 |
| 20260901140601 | 13 | 191 | 0.0 | 0.0 | 0.00 | 0.03 | 0.03 | 39 | 1021.1 |
| 20260901140555 | 13 | 220 | 0.0 | 0.0 | 0.00 | 0.03 | 0.03 | 40 | 1021.1 |
| 20260901135550 | 13 | 220 | 0.0 | 0.0 | 0.00 | 0.03 | 0.03 | 41 | 1021.1 |
| 20260901135044 | 13 | 219 | 0.0 | 0.0 | 0.00 | 0.03 | 0.03 | 41 | 1021.1 |
| 20260901134539 | 13 | 237 | 0.0 | 0.0 | 0.00 | 0.03 | 0.03 | 40 | 1021.1 |
| 20260901134034 | 13 | 246 | 0.0 | 0.0 | 0.00 | 0.03 | 0.03 | 40 | 1020.7 |
| 20260901133528 | 13 | 235 | 0.0 | 0.0 | 0.00 | 0.03 | 0.03 | 40 | 1020.7 |
| 20260901133023 | 13 | 218 | 0.0 | 0.0 | 0.00 | 0.03 | 0.03 | 39 | 1021.1 |
| 20260901132520 | 13 | 247 | 0.0 | 0.0 | 0.00 | 0.03 | 0.03 | 39 | 1020.7 |
| 20260901132515 | 13 | 226 | 0.0 | 0.0 | 0.00 | 0.03 | 0.03 | 40 | 1020.7 |
| 20260901131508 | 13 | 226 | 0.0 | 0.0 | 0.00 | 0.03 | 0.03 | 40 | 1021.1 |
| 20260901131002 | 13 | 208 | 0.0 | 0.0 | 0.00 | 0.03 | 0.03 | 41 | 1020.7 |
| 20260901130457 | 13 | 222 | 0.0 | 0.0 | 0.00 | 0.03 | 0.03 | 41 | 1020.7 |
| 20260901125951 | 12 | 220 | 0.0 | 0.0 | 0.00 | 0.03 | 0.03 | 42 | 1020.7 |
| 20260901125447 | 12 | 214 | 0.0 | 0.0 | 0.00 | 0.03 | 0.03 | 42 | 1020.7 |
| 20260901124942 | 12 | 213 | 0.0 | 0.0 | 0.00 | 0.03 | 0.03 | 42 | 1020.7 |
| 20260901124437 | 12 | 213 | 0.0 | 0.0 | 0.00 | 0.03 | 0.03 | 42 | 1020.7 |
| 20260901123931 | 13 | 213 | 0.0 | 0.0 | 0.00 | 0.03 | 0.03 | 40 | 1020.7 |
| 20260901123425 | 13 | 213 | 0.0 | 0.0 | 0.00 | 0.03 | 0.03 | 41 | 1020.7 |
| 20260901122921 | 13 | 213 | 0.0 | 0.0 | 0.00 | 0.03 | 0.03 | 39 | 1020.7 |
| 20260901122415 | 13 | 213 | 0.0 | 0.0 | 0.00 | 0.03 | 0.03 | 40 | 1020.4 |
| 20260901121910 | 13 | 207 | 0.0 | 0.0 | 0.00 | 0.03 | 0.03 | 40 | 1020.7 |
| 20260901121405 | 13 | 207 | 0.0 | 0.0 | 0.00 | 0.03 | 0.03 | 40 | 1020.7 |
| 20260901121400 | 13 | 216 | 0.0 | 0.0 | 0.00 | 0.03 | 0.03 | 40 | 1020.4 |
| 20260901120353 | 13 | 224 | 0.0 | 0.0 | 0.00 | 0.03 | 0.03 | 40 | 1020.7 |
| 20260901115848 | 13 | 234 | 0.0 | 0.0 | 0.00 | 0.03 | 0.03 | 39 | 1020.4 |
| 20260901115342 | 13 | 226 | 0.0 | 0.0 | 0.00 | 0.03 | 0.03 | 38 | 1020.7 |
| 20260901114838 | 13 | 231 | 0.0 | 0.0 | 0.00 | 0.03 | 0.03 | 38 | 1020.4 |
| 20260901114332 | 13 | 221 | 0.0 | 0.0 | 0.00 | 0.03 | 0.03 | 38 | 1020.7 |
| 20260901113827 | 13 | 223 | 0.0 | 0.0 | 0.00 | 0.03 | 0.03 | 39 | 1020.7 |
| 20260901113321 | 14 | 222 | 0.0 | 0.0 | 0.00 | 0.03 | 0.03 | 38 | 1020.7 |
| 20260901113316 | 14 | 230 | 0.0 | 0.0 | 0.00 | 0.03 | 0.03 | 39 | 1020.4 |
| 20260901112310 | 14 | 227 | 0.0 | 0.0 | 0.00 | 0.03 | 0.03 | 39 | 1020.4 |
| 20260901111805 | 14 | 233 | 0.0 | 0.0 | 0.00 | 0.03 | 0.03 | 38 | 1020.4 |
| 20260901111259 | 14 | 233 | 0.0 | 0.0 | 0.00 | 0.03 | 0.03 | 37 | 1020.4 |
| 20260901110756 | 15 | 232 | 0.0 | 0.0 | 0.00 | 0.03 | 0.03 | 37 | 1020.4 |
| 20260901110751 | 15 | 210 | 0.0 | 0.0 | 0.00 | 0.03 | 0.03 | 37 | 1020.1 |
| 20260901105744 | 15 | 223 | 0.0 | 0.0 | 0.00 | 0.03 | 0.03 | 36 | 1020.4 |
| 20260901105739 | 15 | 218 | 0.0 | 0.0 | 0.00 | 0.03 | 0.03 | 35 | 1020.4 |
| 20260901104733 | 15 | 220 | 0.0 | 0.0 | 0.00 | 0.03 | 0.03 | 35 | 1020.4 |
| 20260901104228 | 15 | 232 | 0.0 | 0.0 | 0.00 | 0.03 | 0.03 | 34 | 1020.4 |
| 20260901103724 | 15 | 201 | 0.0 | 0.0 | 0.00 | 0.03 | 0.03 | 34 | 1020.4 |
| 20260901103218 | 16 | 208 | 0.0 | 0.0 | 0.00 | 0.03 | 0.03 | 34 | 1020.1 |
| 20260901102713 | 16 | 215 | 0.0 | 0.0 | 0.00 | 0.03 | 0.03 | 34 | 1020.4 |
| 20260901102207 | 16 | 188 | 0.0 | 0.0 | 0.00 | 0.03 | 0.03 | 33 | 1020.1 |
| 20260901101702 | 16 | 193 | 0.0 | 0.0 | 0.00 | 0.03 | 0.03 | 33 | 1019.7 |
| 20260901101157 | 16 | 225 | 0.0 | 0.0 | 0.00 | 0.03 | 0.03 | 33 | 1019.7 |
| 20260901100652 | 16 | 166 | 0.0 | 0.0 | 0.00 | 0.03 | 0.03 | 33 | 1019.7 |
| 20260901100146 | 16 | 278 | 0.0 | 0.0 | 0.00 | 0.03 | 0.03 | 32 | 1019.7 |
| 20260901095641 | 16 | 276 | 0.0 | 0.0 | 0.00 | 0.03 | 0.03 | 33 | 1019.7 |
| 20260901095136 | 16 | 321 | 0.0 | 0.0 | 0.00 | 0.03 | 0.03 | 32 | 1019.7 |
| 20260901094630 | 16 | 151 | 0.0 | 1.6 | 0.00 | 0.03 | 0.03 | 32 | 1019.7 |
| 20260901094125 | 16 | 245 | 0.0 | 1.6 | 0.00 | 0.03 | 0.03 | 32 | 1019.7 |
| 20260901093621 | 16 | 203 | 0.0 | 0.0 | 0.00 | 0.03 | 0.03 | 33 | 1020.1 |
| 20260901093616 | 16 | 285 | 0.0 | 0.0 | 0.00 | 0.03 | 0.03 | 33 | 1020.1 |
| 20260901092609 | 16 | 210 | 0.0 | 0.0 | 0.00 | 0.03 | 0.03 | 32 | 1020.1 |
| 20260901092104 | 16 | 239 | 0.0 | 0.0 | 0.00 | 0.03 | 0.03 | 32 | 1020.1 |
| 20260901092059 | 16 | 302 | 0.0 | 1.6 | 0.00 | 0.03 | 0.03 | 32 | 1020.1 |
| 20260901091054 | 16 | 225 | 0.0 | 1.6 | 0.00 | 0.03 | 0.03 | 32 | 1020.1 |
| 20260901090547 | 15 | 186 | 0.0 | 0.0 | 0.00 | 0.03 | 0.03 | 32 | 1019.7 |
| 20260901090042 | 15 | 200 | 0.0 | 1.6 | 0.03 | 0.03 | 0.03 | 32 | 1019.7 |
| 20260901085537 | 15 | 238 | 0.0 | 1.6 | 0.03 | 0.03 | 0.03 | 32 | 1020.1 |
| 20260901085031 | 15 | 214 | 0.0 | 1.6 | 0.03 | 0.03 | 0.03 | 32 | 1020.1 |
| 20260901084527 | 15 | 233 | 0.0 | 0.0 | 0.03 | 0.03 | 0.03 | 34 | 1020.4 |
| 20260901084021 | 15 | 282 | 0.0 | 0.0 | 0.03 | 0.03 | 0.03 | 34 | 1020.1 |
| 20260901083515 | 15 | 238 | 0.0 | 0.0 | 0.03 | 0.03 | 0.03 | 35 | 1020.4 |
| 20260901083010 | 15 | 237 | 0.0 | 0.0 | 0.03 | 0.03 | 0.03 | 34 | 1020.1 |
| 20260901082505 | 15 | 198 | 0.0 | 0.0 | 0.03 | 0.03 | 0.03 | 34 | 1020.1 |
| 20260901082000 | 15 | 232 | 0.0 | 0.0 | 0.03 | 0.03 | 0.03 | 34 | 1020.4 |
| 20260901081454 | 15 | 238 | 0.0 | 0.0 | 0.03 | 0.03 | 0.03 | 34 | 1020.1 |
| 20260901080949 | 15 | 238 | 0.0 | 0.0 | 0.03 | 0.03 | 0.03 | 34 | 1020.1 |
| 20260901080444 | 15 | 227 | 0.0 | 0.0 | 0.03 | 0.03 | 0.03 | 34 | 1020.4 |
| 20260901075934 | 15 | 234 | 0.0 | 0.0 | 0.00 | 0.03 | 0.00 | 33 | 1020.1 |
| 20260901075429 | 15 | 247 | 0.0 | 0.0 | 0.00 | 0.03 | 0.00 | 33 | 1020.1 |
| 20260901074924 | 15 | 217 | 0.0 | 0.0 | 0.00 | 0.03 | 0.00 | 33 | 1020.1 |
| 20260901074419 | 15 | 242 | 0.0 | 0.0 | 0.00 | 0.03 | 0.00 | 33 | 1020.1 |
| 20260901073913 | 16 | 211 | 0.0 | 0.0 | 0.00 | 0.03 | 0.00 | 33 | 1020.1 |
| 20260901073407 | 16 | 226 | 0.0 | 0.0 | 0.00 | 0.03 | 0.00 | 33 | 1020.1 |
| 20260901073402 | 16 | 336 | 0.0 | 0.0 | 0.00 | 0.03 | 0.00 | 33 | 1020.1 |
| 20260901072356 | 16 | 240 | 0.0 | 0.0 | 0.00 | 0.03 | 0.00 | 33 | 1020.1 |
| 20260901071851 | 16 | 210 | 0.0 | 0.0 | 0.00 | 0.03 | 0.00 | 33 | 1020.4 |
| 20260901071345 | 16 | 271 | 0.0 | 0.0 | 0.00 | 0.03 | 0.00 | 32 | 1020.1 |
| 20260901071340 | 16 | 195 | 0.0 | 1.6 | 0.00 | 0.03 | 0.00 | 32 | 1020.1 |
| 20260901070334 | 16 | 224 | 0.0 | 1.6 | 0.00 | 0.03 | 0.00 | 31 | 1020.1 |
| 20260901065829 | 16 | 274 | 0.0 | 1.6 | 0.00 | 0.03 | 0.03 | 31 | 1020.1 |
| 20260901065824 | 16 | 295 | 0.0 | 0.0 | 0.00 | 0.03 | 0.03 | 31 | 1020.4 |